{"data":{"norad_id":66952,"intl_designator":"2025-286AD","name":"STARLINK-36122","alt_names":[],"object_type":"PAYLOAD","status":"ACTIVE","operator":null,"country":"US","launch_date":"2025-12-07","launch_site_code":"AFWTR","launch_vehicle":null,"mission":null,"orbit_class":"UNKNOWN","rcs_meters":null,"size_class":null,"mass_kg":null,"dimensions":null,"purposes":["comms"],"wikipedia_slug":null,"has_3d_model":false,"image_url":null,"decayed_at":null,"tle_current":{"epoch":"2026-09-20T00:12:46.114848Z","epoch_age_seconds":124895,"freshness":"FRESH","line1":"1 66952U 25286AD  26263.00886707  .00015258  00000+0  46184-3 0  9992","line2":"2 66952  53.1585 171.9050 0001010  54.0558 306.0538 15.34396030 45221","mean_motion":15.3439603,"eccentricity":0.000101,"inclination_deg":53.1585,"raan_deg":171.905,"arg_perigee_deg":54.0558,"mean_anomaly_deg":306.0538,"bstar":0.00046184,"rev_number":4522,"period_min":93.848000897135,"perigee_km":462.02411385316,"apogee_km":463.40596596522,"semimajor_km":6840.8520399092,"source":"CELESTRAK","updated_at":"2026-09-21T09:00:36.061576Z"}}}